This is the latest recevied weather packets stored in our database for station/object SQ3MKP-13. If no packets are shown the sender has not sent any weather packets the latest 10 day(s).
| Time | Temp. | Humidity | Pressure | Rain* | Wind** | Luminosity | Snow |
|---|---|---|---|---|---|---|---|
| 1777619919 | 12.78° C | 56% | 1017.9 hPa | - | - | 415 W/m² | - |
| 1777619618 | 12.78° C | 55% | 1017.9 hPa | - | - | 402 W/m² | - |
| 1777619317 | 12.78° C | 56% | 1017.9 hPa | - | - | 390 W/m² | - |
| 1777619016 | 12.78° C | 57% | 1017.9 hPa | - | - | 378 W/m² | - |
| 1777618715 | 12.78° C | 57% | 1017.9 hPa | - | - | 367 W/m² | - |
| 1777618415 | 12.22° C | 57% | 1017.9 hPa | - | - | 355 W/m² | - |
| 1777618114 | 12.22° C | 57% | 1017.9 hPa | - | - | 341 W/m² | - |
| 1777617812 | 12.22° C | 58% | 1017.9 hPa | - | - | 327 W/m² | - |
| 1777617512 | 11.67° C | 59% | 1017.9 hPa | - | - | 309 W/m² | - |
| 1777617211 | 11.67° C | 59% | 1017.9 hPa | - | - | 201 W/m² | - |
| 1777616910 | 11.67° C | 59% | 1017.9 hPa | - | - | 284 W/m² | - |
| 1777616609 | 11.67° C | 60% | 1017.9 hPa | - | - | 171 W/m² | - |
| 1777616308 | 11.11° C | 60% | 1017.9 hPa | - | - | 59 W/m² | - |
| 1777616007 | 11.11° C | 61% | 1017.9 hPa | - | - | 58 W/m² | - |
| 1777615707 | 11.11° C | 60% | 1017.9 hPa | - | - | 58 W/m² | - |
| 1777615405 | 10.56° C | 61% | 1018 hPa | - | - | 73 W/m² | - |
| 1777615105 | 10.56° C | 61% | 1017.9 hPa | - | - | 212 W/m² | - |
| 1777614804 | 10.56° C | 62% | 1017.9 hPa | - | - | 191 W/m² | - |
| 1777614503 | 10° C | 63% | 1017.9 hPa | - | - | 187 W/m² | - |
| 1777614202 | 10.56° C | 62% | 1017.8 hPa | - | - | 175 W/m² | - |
| 1777613901 | 10° C | 64% | 1017.8 hPa | - | - | 163 W/m² | - |
| 1777613600 | 9.44° C | 64% | 1017.8 hPa | - | - | 151 W/m² | - |
| 1777613299 | 9.44° C | 66% | 1017.9 hPa | - | - | 138 W/m² | - |
| 1777612998 | 9.44° C | 65% | 1017.9 hPa | - | - | 125 W/m² | - |
| 1777612698 | 9.44° C | 66% | 1017.9 hPa | - | - | 113 W/m² | - |
* Rain since midnight (hover to see other rain measurements)
** Current wind speed in m/s (hover to see current wind gust speed)